Dewpoint
56 55 54 54 54 55 55 55 55 55 55 54 55 55 56 55 56 57 57 58 58 59 59 59 60 60 61 61 61 61 60 55 51 46 37 37 60 64 66 62 66 66 64 41 31 21 21 21 21 21 29 30 32 29 32 33 37 31 26 26 21 21 16 19 17 19 19 17 18 18 18 17 16 18 21 19 19 22 26 29 32 50 54 54 55 54 58 59
56 55 54 54 54 55 54 55 55 54 54 54 54 55 55 55 56 56 57 57 58 58 59 59 59 60 61 61 61 61 56 45 42 43 32 58 63 65 66 66 66 65 60 39 29 24 22 20 20 24 27 25 35 32 34 29 33 25 26 27 19 25 18 18 18 20 16 17 18 18 19 16 16 18 20 17 17 20 22 23 37 46 52 55 56 57 58 59
56 55 54 54 54 54 54 54 54 54 54 54 54 54 54 55 55 56 56 57 57 57 58 59 60 60 60 61 60 60 54 47 37 23 26 59 64 63 65 66 65 65 42 40 39 24 24 22 24 17 24 20 20 27 32 30 24 30 23 16 23 28 20 20 21 20 21 18 17 17 18 17 18 17 22 16 17 20 20 21 25 39 48 53 54 56 57 58
56 55 54 54 54 54 54 54 54 54 54 54 54 54 54 54 55 55 56 56 57 57 58 59 59 60 60 60 60 56 47 33 30 37 49 62 62 64 65 63 64 61 52 44 40 39 29 23 20 17 25 19 20 29 27 31 17 22 25 22 19 21 17 17 22 21 22 17 17 17 18 17 19 19 15 14 16 17 18 21 23 26 41 54 55 55 56 57
56 55 54 54 54 54 53 53 54 54 54 54 53 53 54 54 55 55 56 56 57 57 58 58 59 60 60 60 59 53 30 10 14 44 50 61 63 62 63 64 63 53 46 44 36 34 30 23 20 27 21 12 22 17 15 22 24 20 17 22 21 22 19 19 21 23 22 18 16 17 15 16 20 19 16 14 12 13 14 16 21 23 41 55 55 55 55 57
56 55 55 54 54 54 53 53 54 54 54 54 53 53 53 54 54 55 56 56 56 57 57 58 59 59 60 59 54 50 23 4 26 48 57 62 61 63 63 63 62 49 38 33 31 31 23 21 18 21 17 15 14 10 8 19 19 16 16 20 23 21 17 21 23 23 19 18 16 16 18 20 20 20 20 14 12 14 17 15 17 22 43 56 56 55 55 56
56 55 55 54 53 53 53 53 53 53 53 53 53 53 54 53 54 55 55 56 57 57 57 58 59 59 59 58 53 37 25 18 44 48 60 61 62 64 64 62 59 43 34 31 30 29 26 21 18 23 17 18 16 10 16 18 18 19 14 18 21 23 21 24 21 24 21 18 18 20 22 19 19 18 20 17 17 16 19 26 20 20 42 55 55 55 55 56
57 56 55 55 54 54 53 52 53 53 53 53 53 53 54 54 54 54 55 56 56 57 58 58 58 59 59 52 32 33 30 21 36 48 60 63 61 63 59 50 45 43 33 30 30 27 23 19 16 23 15 11 13 14 19 14 14 18 18 21 22 24 23 24 22 22 22 22 23 21 19 19 18 18 21 19 19 20 19 30 34 29 46 53 54 54 54 54
57 56 56 55 55 55 54 53 52 53 53 53 52 53 53 54 54 55 55 56 56 57 57 58 58 59 57 48 35 22 19 36 48 48 55 53 42 50 48 42 43 38 38 35 33 31 25 22 21 17 13 16 17 15 17 12 10 21 18 22 23 23 23 23 22 22 22 23 22 19 20 20 21 22 20 20 20 21 23 33 36 37 44 49 51 54 54 53
57 56 56 55 55 54 53 53 52 52 53 52 52 53 53 54 54 55 55 56 56 57 57 58 59 59 52 37 27 13 27 47 48 50 51 45 42 42 43 45 40 36 36 35 33 25 26 27 25 24 22 19 20 18 23 11 7 20 21 23 22 26 24 24 21 22 23 24 22 18 19 21 23 19 15 18 20 25 25 32 36 36 39 44 47 51 52 52
57 56 56 55 55 54 53 53 53 53 53 52 53 53 54 53 54 54 55 56 56 57 57 58 59 57 51 27 17 12 44 49 51 45 43 43 42 39 41 43 42 39 35 40 35 35 31 31 37 33 28 17 22 21 22 22 21 21 23 23 22 23 25 24 22 22 22 20 21 19 19 22 22 23 18 18 21 23 23 28 34 34 35 38 42 47 48 48
57 56 56 55 55 54 54 53 53 53 53 52 52 53 53 53 54 54 54 56 56 57 57 58 58 55 43 31 14 14 44 46 46 43 45 44 40 42 42 42 42 42 34 32 38 43 40 38 38 22 15 24 19 23 22 25 22 22 22 20 21 21 22 23 21 21 23 21 23 23 17 17 22 19 20 21 25 23 22 25 30 32 33 36 38 42 44 45
57 56 56 55 55 54 54 54 53 53 53 52 52 53 53 53 54 54 55 56 56 57 58 58 57 56 38 19 27 40 47 47 45 40 42 45 43 44 47 47 48 41 36 31 32 41 45 39 29 24 28 20 21 15 23 24 23 21 21 20 19 21 20 21 23 24 22 22 25 19 12 14 15 20 19 22 27 21 20 21 24 27 27 30 34 37 40 42
57 56 56 55 55 54 54 54 53 53 52 51 52 52 52 53 53 54 55 55 57 57 58 57 53 50 30 8 38 47 47 51 44 39 41 45 38 41 39 41 45 42 44 36 37 41 45 41 29 26 34 21 20 30 22 22 21 18 20 22 21 18 17 22 23 24 20 24 24 14 13 13 15 16 17 20 23 22 20 19 21 24 25 26 28 29 33 36
57 56 56 55 55 54 54 53 53 52 52 51 52 52 52 53 53 54 55 56 56 57 58 59 52 34 20 24 41 45 58 51 39 39 43 42 37 36 35 36 34 38 38 37 37 43 40 38 30 23 22 26 26 20 19 21 21 19 15 16 24 15 20 24 25 21 19 22 21 18 19 15 14 16 19 24 28 24 22 21 21 23 24 24 26 28 27 28
57 56 56 55 55 54 54 53 53 52 51 51 52 52 53 54 54 55 55 56 57 58 55 54 53 31 20 20 45 54 46 35 33 40 48 47 42 36 37 37 41 36 33 32 42 38 33 31 25 24 24 23 21 21 21 19 20 25 17 20 19 19 19 20 23 25 23 23 24 18 16 16 15 19 22 21 25 24 23 22 23 23 24 24 24 26 28 29
57 56 56 55 55 54 53 52 53 52 51 51 52 53 53 54 55 55 56 57 56 55 54 47 50 39 10 24 38 41 34 41 46 43 41 44 44 38 39 38 35 34 37 34 36 33 30 26 28 26 25 21 23 23 17 17 19 18 22 17 26 17 17 18 22 23 28 22 21 22 20 18 15 17 19 21 25 25 24 23 24 24 24 24 25 24 24 27
57 56 56 55 54 53 53 52 52 51 51 52 53 55 52 54 56 56 56 56 55 54 52 53 37 23 13 33 32 33 43 41 42 43 44 41 41 39 37 33 38 34 32 29 29 25 31 26 28 24 25 23 20 22 17 12 18 18 18 16 16 16 20 18 20 20 23 23 21 20 21 20 20 21 21 21 22 22 23 24 24 23 23 24 24 24 24 25
57 56 55 55 54 53 52 52 51 51 51 52 53 54 54 55 54 51 51 51 30 20 22 26 13 14 16 17 33 43 45 43 43 40 37 39 42 42 38 39 37 28 29 26 25 26 29 29 30 23 19 19 19 19 21 22 22 21 21 21 22 15 16 17 17 20 24 21 21 20 20 20 21 21 21 21 21 22 21 22 23 22 22 22 22 23 24 26
56 56 55 54 53 53 52 51 50 51 53 53 50 50 44 37 36 37 44 42 36 17 25 24 23 25 37 38 42 44 46 40 31 35 40 42 40 36 32 35 37 32 25 25 29 29 34 23 21 21 19 19 20 21 24 23 22 24 25 23 20 19 18 20 21 23 22 20 20 20 20 20 19 19 18 18 19 20 19 18 19 21 22 23 23 23 24 24
56 56 55 54 53 52 51 50 51 52 53 50 50 43 27 33 25 26 36 39 40 39 35 31 28 35 37 42 42 38 33 34 38 38 40 46 38 31 30 31 29 29 30 31 29 28 31 23 21 24 22 21 20 21 18 17 20 19 21 19 18 21 15 18 21 24 24 19 19 22 22 21 20 20 20 20 20 20 19 18 18 18 19 21 23 24 25 25
56 55 55 54 54 52 51 51 52 52 53 53 52 47 46 34 31 31 21 11 21 35 37 39 37 38 39 39 41 41 38 34 35 37 42 40 33 28 28 30 28 24 30 30 30 27 25 24 22 26 27 25 21 20 18 17 21 25 17 20 17 17 23 23 25 26 24 23 20 24 23 23 23 23 23 22 21 21 20 19 18 18 19 20 20 22 23 25
56 55 54 54 54 52 51 51 51 52 53 51 49 49 47 48 47 46 23 15 16 35 35 32 35 38 37 38 40 40 28 30 29 36 38 39 34 29 30 28 26 28 31 27 26 25 21 25 26 27 26 20 19 19 22 23 26 21 18 15 15 22 21 19 19 24 26 22 23 25 24 24 24 25 24 25 24 24 25 23 22 22 20 20 20 21 23 23
55 55 55 55 55 53 52 52 53 54 52 50 49 48 48 49 49 49 31 14 12 28 36 35 36 38 37 35 39 34 24 25 31 30 39 34 28 33 30 28 25 28 26 27 26 23 22 22 26 27 26 20 19 22 19 18 17 24 25 23 22 19 23 18 17 25 24 20 29 23 22 18 22 25 24 26 30 29 28 28 26 27 27 26 29 30 29 23
55 55 55 55 55 54 53 53 52 50 51 51 49 49 50 49 47 45 23 20 20 28 37 34 39 39 38 43 42 34 35 33 35 34 40 33 29 28 27 28 24 25 28 29 25 25 22 24 29 25 28 27 24 19 24 23 17 21 25 25 20 21 24 28 28 20 17 16 21 22 12 17 20 21 21 22 22 17 26 27 27 27 27 28 27 27 28 32
55 55 55 55 55 54 55 50 50 49 49 48 48 48 50 49 46 43 24 20 16 23 26 24 33 26 40 36 39 39 29 27 36 38 40 35 36 28 28 24 24 22 27 27 25 27 23 29 28 26 26 25 25 24 25 25 21 18 18 27 26 26 28 28 23 19 13 9 20 23 8 12 18 14 12 12 11 11 12 14 15 17 25 28 28 29 28 29
55 55 55 55 55 55 50 45 50 48 45 45 48 50 49 49 47 35 19 17 13 24 20 30 26 26 36 35 38 28 18 23 38 38 37 40 31 37 25 25 22 25 27 27 24 22 29 29 28 29 26 25 23 20 26 22 19 16 22 32 29 27 27 27 23 18 18 22 25 28 21 15 16 12 20 20 20 18 18 18 18 16 14 27 29 30 30 31
56 56 56 55 55 54 49 49 48 47 44 44 49 50 49 48 44 29 23 8 5 26 22 24 26 35 36 37 33 17 22 31 30 33 39 40 34 29 25 25 21 24 26 27 21 27 28 28 28 27 27 26 22 25 27 25 21 20 29 31 28 28 29 28 27 25 26 18 15 23 27 18 21 24 25 23 18 18 18 18 18 17 19 20 23 25 28 31
56 56 56 56 55 55 53 50 46 45 46 47 47 50 50 44 31 20 17 5 22 25 30 20 33 34 36 32 25 31 31 34 24 33 40 37 38 27 22 25 23 25 27 26 22 26 32 31 31 30 27 23 27 31 33 27 27 31 33 33 32 31 29 27 25 21 22 10 14 20 24 10 13 21 19 19 18 18 17 16 15 17 18 20 23 25 27 30
56 56 56 56 55 54 53 52 49 47 49 49 49 48 43 31 18 17 6 2 21 16 28 29 28 28 33 27 26 30 29 32 36 36 34 32 33 31 30 27 24 25 26 32 30 30 33 35 35 29 27 28 32 32 33 31 31 34 32 29 28 27 26 24 25 22 11 3 12 21 24 12 10 18 14 16 18 16 17 17 17 20 23 25 27 25 33 40
56 56 55 56 52 52 52 49 49 49 49 49 49 44 36 30 19 11 4 14 30 27 28 27 27 33 28 24 23 26 33 34 34 32 31 33 31 30 29 25 29 27 26 28 28 29 30 31 31 31 35 33 32 31 32 34 32 30 26 24 19 18 23 22 18 20 4 9 16 21 25 17 11 15 21 20 21 22 21 20 17 19 22 25 36 39 39 39
56 56 56 55 54 53 50 47 49 51 50 49 45 38 25 17 21 12 9 19 19 24 26 25 27 30 27 27 27 29 32 34 33 30 29 31 30 26 26 22 26 22 19 23 23 27 27 27 30 32 35 32 30 31 30 31 31 26 19 18 17 11 14 7 12 5 9 8 15 22 25 19 19 17 17 15 17 20 22 21 18 20 23 31 36 39 39 39
56 56 56 55 54 51 52 52 52 52 50 48 40 30 22 19 11 16 18 19 15 27 25 29 29 29 27 25 26 29 31 28 32 30 31 31 30 29 29 27 29 23 15 23 26 24 25 27 30 31 31 34 32 27 26 26 27 21 19 17 13 4 8 1 6 8 10 16 20 24 24 18 19 21 19 14 15 19 22 23 23 22 30 35 38 39 39 39
55 56 55 55 54 53 53 53 52 51 50 46 32 28 23 12 13 28 17 18 24 31 31 30 29 28 25 21 25 30 25 27 32 29 31 30 28 27 28 29 29 24 25 24 23 25 14 17 25 30 28 32 30 28 29 27 30 23 23 18 17 14 9 1 3 1 9 12 16 22 14 18 10 12 21 22 22 26 28 28 28 27 28 29 32 36 38 38
55 55 55 55 54 54 53 54 52 50 49 42 31 24 19 15 15 14 16 20 29 32 30 31 27 26 24 25 27 29 26 25 31 30 29 29 27 26 25 25 29 27 26 21 23 22 19 19 23 31 30 33 31 31 32 30 28 27 26 21 13 14 18 1 12 8 8 8 8 16 17 20 18 20 23 26 27 24 24 23 25 25 27 28 28 35 39 38
52 52 54 53 53 54 53 54 52 51 46 37 27 23 19 18 16 21 18 30 33 29 29 29 27 24 23 24 30 27 27 28 30 28 27 28 26 26 27 26 27 26 23 16 24 21 21 19 27 31 31 32 31 31 29 28 20 24 24 20 22 23 17 11 10 18 11 12 12 13 18 19 18 9 14 20 22 21 21 19 18 19 22 28 28 28 33 38
51 51 49 51 53 54 53 52 52 50 45 37 25 21 22 22 28 26 33 27 32 30 28 24 25 24 23 23 26 26 26 31 30 26 24 28 25 27 25 27 28 28 22 20 22 26 19 19 29 29 28 30 33 32 32 33 26 27 23 25 29 27 24 14 10 9 6 8 11 11 11 11 7 11 22 16 17 18 19 18 16 18 19 21 26 28 32 36
50 50 50 50 52 54 53 52 51 49 45 36 25 28 27 20 31 37 39 33 31 31 27 25 25 27 23 24 26 25 27 26 28 26 24 27 22 29 27 26 29 27 25 24 17 20 22 13 20 31 30 32 32 32 31 31 32 27 26 30 23 18 14 20 13 4 7 6 9 13 13 14 12 10 13 12 14 15 15 17 17 16 16 19 21 25 31 33
49 47 44 49 54 54 52 53 51 48 42 32 27 25 33 26 39 38 39 39 36 31 26 28 27 27 26 23 26 26 28 21 28 27 23 25 19 25 25 26 27 28 27 24 14 21 21 13 16 31 30 31 31 30 27 28 32 33 30 26 29 24 18 14 16 12 14 6 1 12 5 7 18 14 11 8 14 17 15 15 15 16 17 17 22 26 29 31
46 42 42 51 54 53 52 52 48 45 39 29 27 25 37 32 34 37 38 38 36 29 27 28 29 26 27 26 29 25 28 25 28 27 23 26 22 29 26 26 24 29 27 25 20 29 20 15 11 26 30 29 28 29 26 29 30 28 26 25 28 24 24 25 19 15 10 2 3 4 7 13 18 18 11 9 9 10 11 13 16 17 18 20 24 27 30 32
45 41 41 53 53 53 52 48 43 37 35 33 33 32 35 34 37 37 38 38 36 38 36 32 30 26 28 28 28 29 28 27 28 26 24 24 23 18 27 27 28 28 29 28 22 25 17 15 14 27 27 26 27 28 29 31 30 28 26 26 26 25 18 13 17 20 10 7 7 1 7 13 21 20 12 12 11 12 14 13 15 17 19 24 29 30 31 32
41 34 40 53 53 52 48 41 38 39 35 33 32 34 34 40 37 37 38 37 36 35 36 35 35 30 29 27 29 30 28 27 28 26 26 23 27 24 27 28 29 30 27 25 23 27 21 23 27 25 29 30 30 29 32 31 30 29 27 25 28 26 23 15 12 14 16 19 15 13 5 13 17 19 17 16 15 14 15 20 18 20 25 28 30 31 32 32
37 35 47 52 53 50 45 37 35 34 32 36 39 38 39 39 37 38 36 37 34 36 33 32 33 33 34 29 30 30 29 27 29 28 28 27 26 27 30 29 31 30 27 25 28 29 30 18 17 21 25 26 29 30 31 31 29 29 29 28 27 25 25 21 17 21 20 17 14 14 10 13 21 24 22 21 25 27 27 23 22 26 30 31 32 34 36 38
37 37 42 50 52 50 41 32 32 33 34 37 38 38 40 39 38 38 36 38 34 35 33 34 33 37 34 35 31 29 31 24 29 29 28 29 27 32 34 32 30 29 26 26 23 28 18 23 21 14 14 19 24 29 28 30 30 27 26 28 28 28 26 23 21 18 15 20 20 17 13 14 25 29 27 27 26 22 27 28 28 27 28 29 34 37 37 37
35 36 39 44 49 48 39 39 36 34 34 34 36 35 37 38 40 40 38 38 40 37 35 34 34 35 34 34 33 34 34 27 23 31 30 29 30 35 35 34 31 29 30 32 32 29 24 24 20 16 15 13 12 19 22 27 29 27 28 28 30 29 27 23 22 19 18 18 20 17 15 15 27 27 24 25 26 23 24 26 29 29 29 33 35 35 36 35
33 27 32 36 44 42 43 42 40 37 34 34 34 35 37 35 37 39 40 40 41 40 37 36 37 36 34 32 31 32 31 33 29 27 29 28 28 32 36 32 35 32 33 36 33 27 23 26 22 19 17 15 16 18 23 31 28 27 28 29 29 30 29 27 24 23 20 21 20 21 19 16 19 23 23 22 25 25 23 27 29 29 30 32 33 33 34 33
35 27 31 29 35 39 38 39 38 38 35 37 32 36 34 35 37 37 40 37 40 40 39 38 36 34 33 33 32 32 33 33 31 30 30 27 29 31 32 34 34 35 38 35 33 29 27 24 25 23 21 20 20 20 28 30 28 28 28 28 29 29 29 28 25 22 23 21 19 22 23 22 20 20 23 23 24 26 27 27 27 27 29 30 31 32 33 31
30 31 31 32 32 31 34 35 39 37 38 37 34 36 35 35 36 34 39 39 41 41 38 38 39 38 37 34 34 30 32 32 30 30 31 30 31 30 31 31 32 35 35 33 34 27 28 25 27 25 23 23 23 25 30 29 28 28 28 27 28 29 29 28 28 27 25 23 19 21 23 23 21 22 22 22 23 23 24 24 25 25 27 30 31 31 31 31
34 32 31 34 28 31 34 34 39 38 37 37 35 36 34 34 34 36 37 37 39 39 39 33 36 38 38 38 36 34 33 29 29 29 29 28 28 26 27 29 32 33 34 33 32 33 28 26 28 27 25 25 24 26 29 28 27 27 27 27 27 29 29 28 28 28 27 25 25 24 23 23 23 22 23 23 24 24 23 27 31 30 31 31 31 31 31 31
30 30 29 32 32 32 33 36 38 38 36 37 34 35 35 34 34 36 38 37 34 37 40 36 35 37 38 38 38 36 36 36 35 30 30 31 29 27 26 29 29 32 33 33 33 32 28 26 31 27 26 26 26 26 29 29 27 26 27 28 27 28 29 29 28 28 28 27 26 25 25 24 24 25 25 25 25 26 28 30 30 31 32 31 31 31 31 31
35 35 35 31 29 29 31 32 34 36 35 36 35 35 36 35 34 36 37 38 36 36 39 37 36 37 38 38 38 38 39 38 38 37 36 34 32 34 32 31 33 31 31 31 33 33 31 30 31 28 25 25 26 26 28 28 27 26 26 27 28 27 27 28 29 29 27 26 26 26 25 24 25 26 26 26 30 30 30 31 31 32 31 31 31 31 32 32
35 35 36 33 26 33 30 31 32 34 32 35 35 35 35 35 36 37 34 38 38 38 39 39 38 37 36 37 37 38 40 40 40 40 40 38 38 40 40 40 40 36 33 32 34 33 32 31 30 28 26 25 26 27 28 29 28 27 29 29 29 29 28 28 30 30 29 28 26 25 25 26 26 29 27 29 30 30 31 31 31 32 32 32 32 32 33 33